• In Russia
  • List of Countries
  • For 7 days
  • Water Temperature
  • Satellite Maps
  • Weather Map
  • Weather Widgets
  • user-avatar
    Login

    Hourly Weather Melanowo

    Today, 23 February, Saturday

    Time Temperature Precipitation Wind Pressure Humidity
    00:00 -4°C° 0 mm 2 mps 773 mmHg 51%
    01:00 -4°C° 0 mm 2 mps 773 mmHg 50%
    02:00 -4°C° 0 mm 2 mps 773 mmHg 49%
    03:00 -4°C° 0 mm 2 mps 773 mmHg 49%
    04:00 -2°C° 0 mm 1 mps 773 mmHg 48%
    05:00 -2°C° 0 mm 1 mps 773 mmHg 48%
    06:00 -2°C° 0 mm 1 mps 773 mmHg 48%
    07:00 -2°C° 0 mm 1 mps 773 mmHg 47%
    08:00 -1°C° 0 mm 1 mps 773 mmHg 43%
    09:00 -1°C° 0 mm 1 mps 773 mmHg 38%
    10:00 0°C° 0 mm 1 mps 773 mmHg 33%
    11:00 +1°C° 0 mm 1 mps 773 mmHg 30%
    12:00 +2°C° 0 mm 1 mps 772 mmHg 28%
    13:00 +3°C° 0 mm 1 mps 772 mmHg 25%
    14:00 +3°C° 0 mm 1 mps 772 mmHg 26%
    15:00 +3°C° 0 mm 1 mps 772 mmHg 28%
    16:00 +3°C° 0 mm 1 mps 771 mmHg 29%
    17:00 +2°C° 0 mm 1 mps 771 mmHg 32%
    18:00 +1°C° 0 mm 1 mps 771 mmHg 35%
    19:00 0°C° 0 mm 1 mps 771 mmHg 38%
    20:00 0°C° 0 mm 1 mps 771 mmHg 39%
    21:00 -1°C° 0 mm 1 mps 771 mmHg 40%
    22:00 -3°C° 0 mm 2 mps 771 mmHg 41%
    23:00 -3°C° 0 mm 2 mps 770 mmHg 42%

    Tomorrow, 24 February, Sunday

    Time Temperature Precipitation Wind Pressure Humidity
    00:00 -3°C° 0 mm 2 mps 770 mmHg 43%
    01:00 -3°C° 0 mm 2 mps 770 mmHg 44%
    02:00 -3°C° 0 mm 2 mps 770 mmHg 43%
    03:00 0°C° 0 mm 1 mps 769 mmHg 42%
    04:00 0°C° 0 mm 1 mps 769 mmHg 41%
    05:00 0°C° 0 mm 1 mps 769 mmHg 40%
    06:00 0°C° 0 mm 1 mps 769 mmHg 39%
    07:00 +1°C° 0 mm 1 mps 769 mmHg 38%
    08:00 +1°C° 0 mm 2 mps 769 mmHg 36%
    09:00 +2°C° 0 mm 2 mps 769 mmHg 34%
    10:00 +3°C° 0 mm 2 mps 768 mmHg 32%
    11:00 +3°C° 0 mm 3 mps 768 mmHg 33%
    12:00 +4°C° 0 mm 3 mps 768 mmHg 33%
    13:00 +5°C° 0 mm 3 mps 768 mmHg 33%
    14:00 +5°C° 0 mm 3 mps 768 mmHg 38%
    15:00 +5°C° 0 mm 3 mps 767 mmHg 42%
    16:00 +5°C° 0 mm 3 mps 767 mmHg 47%
    17:00 +3°C° 0 mm 3 mps 767 mmHg 50%
    18:00 +2°C° 0 mm 3 mps 767 mmHg 53%
    19:00 +1°C° 0 mm 3 mps 767 mmHg 56%
    20:00 +1°C° 0 mm 3 mps 767 mmHg 59%
    21:00 +1°C° 0 mm 3 mps 767 mmHg 62%
    22:00 0°C° 0 mm 3 mps 768 mmHg 64%
    23:00 0°C° 0 mm 3 mps 768 mmHg 68%

    Day after tomorrow, 25 February, Monday

    Time Temperature Precipitation Wind Pressure Humidity
    00:00 0°C° 0 mm 3 mps 768 mmHg 71%
    01:00 0°C° 0 mm 3 mps 768 mmHg 74%
    02:00 -1°C° 0 mm 3 mps 768 mmHg 77%
    03:00 -1°C° 0 mm 3 mps 767 mmHg 80%
    04:00 -1°C° 0 mm 3 mps 767 mmHg 83%
    05:00 -1°C° 0 mm 2 mps 767 mmHg 85%
    06:00 -1°C° 0 mm 2 mps 768 mmHg 88%
    07:00 -1°C° 0 mm 2 mps 768 mmHg 90%
    08:00 +1°C° 0 mm 2 mps 768 mmHg 86%
    09:00 +3°C° 0 mm 2 mps 768 mmHg 82%
    10:00 +3°C° 0 mm 3 mps 768 mmHg 78%
    11:00 +5°C° 0 mm 3 mps 768 mmHg 74%
    12:00 +7°C° 0 mm 3 mps 768 mmHg 70%
    13:00 +8°C° 0 mm 3 mps 768 mmHg 67%
    14:00 +8°C° 0 mm 3 mps 767 mmHg 68%
    15:00 +8°C° 0 mm 3 mps 767 mmHg 69%
    16:00 +8°C° 0 mm 3 mps 766 mmHg 71%
    17:00 +7°C° 0 mm 3 mps 766 mmHg 76%
    18:00 +5°C° 0 mm 3 mps 766 mmHg 82%
    19:00 +4°C° 0 mm 3 mps 766 mmHg 87%
    20:00 +4°C° 0 mm 3 mps 766 mmHg 87%
    21:00 +4°C° 0 mm 3 mps 766 mmHg 88%
    22:00 +3°C° 0 mm 3 mps 765 mmHg 88%
    23:00 +3°C° 0 mm 3 mps 765 mmHg 85%

    26 February, Tuesday

    Time Temperature Precipitation Wind Pressure Humidity
    00:00 +3°C° 0 mm 4 mps 765 mmHg 83%
    01:00 +1°C° 0 mm 4 mps 765 mmHg 80%
    02:00 +1°C° 0 mm 4 mps 764 mmHg 81%
    03:00 0°C° 0 mm 4 mps 764 mmHg 82%
    04:00 0°C° 0 mm 4 mps 764 mmHg 82%
    05:00 0°C° 0 mm 4 mps 764 mmHg 83%
    06:00 0°C° 0 mm 4 mps 763 mmHg 83%
    07:00 0°C° 0 mm 5 mps 763 mmHg 83%
    08:00 +1°C° 0 mm 5 mps 763 mmHg 76%
    09:00 +3°C° 0 mm 5 mps 763 mmHg 68%
    10:00 +4°C° 0 mm 6 mps 763 mmHg 61%
    11:00 +7°C° 0 mm 6 mps 763 mmHg 57%
    12:00 +8°C° 0 mm 6 mps 762 mmHg 54%
    13:00 +9°C° 0 mm 6 mps 762 mmHg 50%
    14:00 +9°C° 0 mm 6 mps 762 mmHg 52%
    15:00 +9°C° 0 mm 5 mps 762 mmHg 54%
    16:00 +10°C° 0 mm 5 mps 762 mmHg 55%
    17:00 +8°C° 0 mm 4 mps 762 mmHg 62%
    18:00 +7°C° 0 mm 4 mps 762 mmHg 68%
    19:00 +7°C° 0 mm 3 mps 763 mmHg 74%
    20:00 +5°C° 0 mm 3 mps 763 mmHg 78%
    21:00 +5°C° 0 mm 3 mps 763 mmHg 82%
    22:00 +4°C° 0 mm 3 mps 763 mmHg 86%
    23:00 +5°C° 0 mm 2 mps 763 mmHg 88%

    27 February, Wednesday

    Time Temperature Precipitation Wind Pressure Humidity
    00:00 +4°C° 0 mm 2 mps 762 mmHg 89%
    01:00 +4°C° 0 mm 2 mps 762 mmHg 91%
    02:00 +3°C° 0 mm 2 mps 762 mmHg 91%
    03:00 +3°C° 0 mm 2 mps 762 mmHg 92%
    04:00 +3°C° 0 mm 2 mps 762 mmHg 92%
    05:00 +4°C° 0 mm 1 mps 762 mmHg 92%
    06:00 +3°C° 0 mm 1 mps 762 mmHg 92%
    07:00 +3°C° 0 mm 1 mps 762 mmHg 92%
    08:00 +5°C° 0 mm 1 mps 762 mmHg 87%
    09:00 +5°C° 0 mm 2 mps 762 mmHg 81%
    10:00 +7°C° 0 mm 2 mps 761 mmHg 75%
    11:00 +8°C° 0 mm 2 mps 761 mmHg 70%
    12:00 +9°C° 0 mm 3 mps 760 mmHg 65%
    13:00 +11°C° 0 mm 3 mps 760 mmHg 60%
    14:00 +11°C° 0 mm 3 mps 759 mmHg 60%
    15:00 +11°C° 0 mm 3 mps 759 mmHg 61%
    16:00 +11°C° 0 mm 3 mps 758 mmHg 61%
    17:00 +10°C° 0 mm 3 mps 757 mmHg 66%
    18:00 +9°C° 0 mm 3 mps 757 mmHg 71%
    19:00 +8°C° 0 mm 3 mps 757 mmHg 76%
    20:00 +7°C° 0 mm 3 mps 756 mmHg 77%
    21:00 +7°C° 0 mm 3 mps 756 mmHg 79%
    22:00 +6°C° 0 mm 4 mps 755 mmHg 81%
    23:00 +6°C° 0 mm 4 mps 755 mmHg 80%

    28 February, Thursday

    Time Temperature Precipitation Wind Pressure Humidity
    00:00 +6°C° 0 mm 4 mps 754 mmHg 79%
    01:00 +6°C° 0 mm 5 mps 753 mmHg 78%
    02:00 +6°C° 0 mm 5 mps 753 mmHg 78%
    03:00 +5°C° 0 mm 6 mps 752 mmHg 78%
    04:00 +5°C° 0 mm 6 mps 751 mmHg 79%
    05:00 +4°C° 0 mm 6 mps 751 mmHg 81%
    06:00 +4°C° 0 mm 6 mps 751 mmHg 84%
    07:00 +4°C° 0 mm 6 mps 751 mmHg 86%
    08:00 +4°C° 0 mm 6 mps 751 mmHg 84%
    09:00 +5°C° 0 mm 7 mps 751 mmHg 82%
    10:00 +5°C° 0 mm 7 mps 751 mmHg 81%
    11:00 +6°C° 0 mm 7 mps 751 mmHg 78%
    12:00 +6°C° 0 mm 7 mps 751 mmHg 75%
    13:00 +8°C° 0 mm 7 mps 750 mmHg 72%
    14:00 +8°C° 0 mm 6 mps 750 mmHg 70%
    15:00 +8°C° 0 mm 6 mps 750 mmHg 67%
    16:00 +9°C° 0 mm 6 mps 750 mmHg 65%
    17:00 +8°C° 0 mm 5 mps 750 mmHg 69%
    18:00 +7°C° 0 mm 5 mps 750 mmHg 73%
    19:00 +6°C° 0 mm 4 mps 750 mmHg 77%
    20:00 +5°C° 0 mm 4 mps 750 mmHg 79%
    21:00 +5°C° 0 mm 4 mps 750 mmHg 81%
    22:00 +4°C° 0 mm 4 mps 750 mmHg 83%
    23:00 +4°C° 0 mm 4 mps 750 mmHg 84%
    Show more